Location: Newark
(0.5300°S, 127.4800°E)
Time: 18:50:27
(UTC+00:00)

Vanguard 3 - Pass Details

Date: 23 September 2019
Orbit: 508 x 3262 km, 33.3° (Epoch: 23 October)

Event Time Altitude Azimuth Distance (km) Brightness Sun altitude
Rises 05:56:01 0° 312° (NW) 7,160 12.4 51.7°
Reaches altitude 10° 06:01:16 10° 315° (NW) 5,979 12.1 50.3°
Maximum altitude 06:18:41 62° 32° (NNE) 2,484 10.1 46.0°
Drops below altitude 10° 06:29:01 10° 111° (ESE) 3,747 10.2 43.4°
Sets 06:31:31 0° 114° (ESE) 4,434 10.5 42.8°
